ARCTURUS (56371 NORAD) Tracking and Keplerian Element Data

This shows tracking and keplerian element data for the satellite.

Feedback or suggestion? Click here.




ElementValue
Catalog56371
NameARCTURUS
Epoch Orbit118
Epoch Day238.78148385
Epoch Year2023
RAAN86.874
Inclination0.1175
Eccentricity0.0001603
Argument of Perigee133.2646
Mean Anonmoly232.9477
Mean Motion1.00268906
Decay Rate1.26E-06
L11 56371U 23060B 23238.78148385 .00000126 00000+0 00000+0 0 9992
L22 56371 0.1175 86.8740 0001603 133.2646 232.9477 1.00268906 1182



Live tracking and technical data element details for ARCTURUS (NORAD 56371). ARCTURUS can be tracked NOW for your location showing map with azimuth and elevation plus other details from your city location.







IsCatalogInMostPopularTable: catalog: 56371, numindb: 14
Update: records affected: 1



GetName: 56371 ARCTURUS

Hit Count: updated at: Thu, 28 Sep 2023 04:57:37 GMT